Regional Weather Roundup
Issued by NWS

Home | Current Version | Previous Version | Graphics & Text | Print | Product List | Glossary Off
Versions: 1 2 3 4 5 6 7 8 9 10 11 12 13 14 15 16 17 18 19 20 21 22 23 24 25 26 27 28 29 30 31 32 33 34 35 36 37 38 39 40 41 42 43 44 45 46 47 48 49 50

000
ASUS43 KDMX 260307
RWRIA

WEATHER ROUNDUP FOR IOWA
NATIONAL WEATHER SERVICE DES MOINES IA
900 PM CST SUN JAN 25 2015

NOTE: "FAIR" INDICATES FEW OR NO CLOUDS BELOW 12,000 FEET WITH NO
SIGNIFICANT WEATHER AND/OR OBSTRUCTIONS TO VISIBILITY.

* - THESE STATIONS ARE NOT NWS STATIONS...THUS NOT UNDER NWS
QUALITY CONTROL.  THEY ALSO DO NOT REPORT WEATHER SUCH
AS PRECIPITATION OR FOG.

IAZ001>003-012>014-020>022-031>034-043>046-260400-
   NORTHWEST IOWA

CITY           SKY/WX    TMP DP  RH WIND       PRES   REMARKS
CARROLL *      CLOUDY    30  28  93 N3        30.07S
CHEROKEE *     CLOUDY    32  31  98 SW3       30.06R
DENISON *      CLOUDY    32  32 100 CALM      30.04F
LE MARS *      CLOUDY    34  32  93 CALM      30.05F
ORANGE CITY *  MOCLDY    34  30  86 CALM      30.04S
SHELDON *      CLOUDY    32  32 100 SW5       30.02F WCI  27
SIOUX CITY     CLOUDY    36  31  82 CALM      30.06F
SPENCER        CLOUDY    32  29  88 S3        30.04R
STORM LAKE *   CLOUDY    30  30 100 CALM      30.06R
$$

IAZ055>058-069>071-079>083-090>094-260400-
   SOUTHWEST IOWA

CITY           SKY/WX    TMP DP  RH WIND       PRES   REMARKS
ATLANTIC *     CLOUDY    32  30  93 CALM      30.07F
AUDUBON *      CLOUDY    30  27  86 CALM      30.07F
CLARINDA *     CLOUDY    25  23  93 CALM      30.12R
COUNCIL BLFS * CLOUDY    36  34  93 CALM      30.07S
CRESTON *      CLOUDY    30  27  86 N6        30.07S WCI  24
HARLAN  *      CLOUDY    32  32 100 CALM      30.10F
LAMONI         CLOUDY    32  27  81 N9        30.07R WCI  24
RED OAK *      CLOUDY    30  28  93 CALM      30.09S
SHENANDOAH *   CLOUDY    28  28 100 S3        30.11R
$$

IAZ047>049-059>061-072>074-084-260400-
   CENTRAL IOWA

CITY           SKY/WX    TMP DP  RH WIND       PRES   REMARKS
AMES           CLOUDY    31  24  75 N7        30.07S WCI  24
ANKENY *       CLOUDY    32  27  80 NW9       30.08S WCI  24
CHARITON *     CLOUDY    32  28  86 N7        30.07R WCI  26
DES MOINES     CLOUDY    33  24  69 N6        30.08R WCI  28
GRINNELL*      CLOUDY    30  27  88 N5        30.06S WCI  25
KNOXVILLE *    CLOUDY    32  28  86 NW6       30.06R WCI  26
MARSHALLTOWN   CLOUDY    30  25  81 NE6       30.05S WCI  24
PELLA *        CLOUDY    32  29  90 NW5       30.08S WCI  27
PERRY *          N/A     32  28  83 N7        30.07F WCI  26
$$

IAZ004>006-015-016-023>025-035-036-260400-
   NORTH CENTRAL IOWA

CITY           SKY/WX    TMP DP  RH WIND       PRES   REMARKS
ALGONA *       CLOUDY    28  25  86 NE5       30.06S WCI  23
CLARION *      CLOUDY    28  25  86 N9        30.06S WCI  20
ESTHERVILLE    CLOUDY    27  24  89 CALM      30.04R
FORT DODGE *   CLOUDY    28  21  74 N3        30.07S
MASON CITY     CLOUDY    26  21  81 NE3       30.06S
FOREST CITY *  CLOUDY    27  21  80 CALM      30.05R
IOWA FALLS *   CLOUDY    30  25  80 NW3       30.06S
$$

IAZ007>011-017>019-026>030-037>042-050>054-066-260400-
   NORTHEAST IOWA

CITY           SKY/WX    TMP DP  RH WIND       PRES   REMARKS
CEDAR RAPIDS   MOCLDY    21  16  81 E7        30.06R WCI  12
CHARLES CITY * CLOUDY    27  25  93 NW5       30.05F WCI  21
CLINTON *      CLEAR     16   9  73 N10       30.08R WCI   3
DECORAH *      CLOUDY    23  18  80 CALM      30.03F
DUBUQUE        PTCLDY    16  10  77 N8        30.06R WCI   5
MONTICELLO *   CLEAR     18  16  93 CALM      30.07S
OELWEIN *      CLOUDY    25  19  80 CALM      30.06S
WATERLOO       CLOUDY    28  24  85 NE3       30.06S
$$

IAZ064-065-067-068-078-260400-
   EAST CENTRAL IOWA

CITY           SKY/WX    TMP DP  RH WIND       PRES   REMARKS
DAVENPORT      CLEAR     17  11  77 N10       30.07R WCI   5
IOWA CITY      CLEAR     23  16  74 N5        30.10R WCI  17
MT. PLEASANT * CLOUDY    26  21  82 N12       30.07S WCI  15
MUSCATINE *    MOCLDY    25  18  74 N10       30.09R WCI  15
QUAD CITIES    CLEAR     22  14  71 N9        30.07R WCI  12
$$

IAZ062-063-075>077-085>089-095>099-260400-
   SOUTHEAST IOWA

CITY           SKY/WX    TMP DP  RH WIND       PRES   REMARKS
BURLINGTON     CLOUDY    25  21  85 N10       30.06R WCI  15
FAIRFIELD *    CLOUDY    28  23  80 NE7       30.07S WCI  21
FORT MADISON * MOCLDY    27  23  86 N13       30.07R WCI  16
KEOKUK *       CLEAR     27  21  80 N10       30.06R WCI  17
OSKALOOSA *    CLOUDY    29  26  90 CALM      30.07S
CENTERVILLE *  CLOUDY    28  28 100 NW3       30.07S
OTTUMWA        CLOUDY    29  25  85 N3        30.06S
WASHINGTON *   CLOUDY    27  23  86 NE9       30.07F WCI  17
$$

ABBREVIATIONS USED IN REMARKS
   TC - TEMPERATURES IN CELSIUS
  WCI - WIND CHILL INDEX
   HX - HEAT INDEX
  VSB - VISIBILITY
$$




USA.gov is the U.S. government's official web portal to all federal, state and local government web resources and services.